Date,TemperatureHighF,TemperatureAvgF,TemperatureLowF,DewpointHighF,DewpointAvgF,DewpointLowF,HumidityHigh,HumidityAvg,HumidityLow,PressureMaxIn,PressureMinIn,WindSpeedMaxMPH,WindSpeedAvgMPH,GustSpeedMaxMPH,PrecipitationSumIn
2013-6-1,86.3,74.0,66.8,43.4,27.9,16.1,34,20,8,30.00,29.93,8,0,31,0.00
2013-6-2,96.9,86.9,77.4,36.1,30.0,22.3,22,14,7,29.82,29.77,18,4,19,0.00
2013-6-3,96.3,81.9,62.4,41.2,28.9,19.5,40,18,7,29.91,29.80,20,2,21,0.00
2013-6-4,95.8,79.5,59.5,36.1,26.4,17.2,38,17,6,29.95,29.85,26,2,26,0.00
2013-6-5,100.3,83.7,61.2,34.0,26.1,20.5,32,14,6,29.97,29.82,20,1,20,0.00
2013-6-6,103.5,86.6,63.5,35.8,26.2,19.5,35,14,5,29.93,29.78,14,1,20,0.00
2013-6-7,104.5,87.0,65.2,33.5,25.2,15.6,29,13,5,29.90,29.75,14,0,20,0.00
2013-6-8,104.5,87.5,66.3,33.5,25.7,20.4,26,12,6,29.95,29.80,29,4,32,0.00
2013-6-9,104.6,87.1,65.7,37.4,27.7,18.3,32,14,6,30.00,29.85,20,2,32,0.00
2013-6-10,100.5,85.3,64.9,33.2,21.6,13.0,29,11,5,29.99,29.87,26,2,32,0.00
2013-6-11,102.3,84.8,63.4,33.9,24.3,18.1,27,12,6,30.01,29.91,19,2,32,0.00
2013-6-12,103.8,87.2,65.6,37.7,27.5,21.7,30,14,6,30.05,29.94,21,2,32,0.00
2013-6-13,100.4,85.6,66.9,41.6,33.9,24.6,33,17,7,30.04,29.90,24,3,32,0.00
2013-6-14,100.0,85.3,67.7,41.9,34.2,24.1,33,18,7,29.99,29.84,24,3,32,0.00
2013-6-15,97.3,83.0,65.6,41.9,35.2,28.6,39,20,9,29.98,29.88,21,3,32,0.00
2013-6-16,98.8,83.8,65.4,43.2,30.6,19.7,34,17,7,30.04,29.95,24,2,25,0.00
2013-6-17,98.0,83.1,63.1,34.7,24.5,13.3,32,14,6,30.03,29.90,25,2,28,0.00
2013-6-18,98.0,80.8,61.1,26.5,18.9,11.1,21,11,6,29.97,29.82,25,2,25,0.00
2013-6-19,96.1,80.3,58.8,30.8,20.7,15.4,28,13,6,29.85,29.78,25,3,27,0.00
2013-6-20,95.5,79.9,59.1,32.3,24.3,16.1,30,15,6,29.90,29.82,22,3,27,0.00
2013-6-21,95.7,81.2,60.8,39.1,24.9,16.5,37,16,6,29.94,29.84,26,2,27,0.00
2013-6-22,96.0,79.8,60.1,33.1,26.7,19.8,33,16,7,29.92,29.80,21,2,27,0.00
2013-6-23,94.8,80.2,60.5,33.3,23.7,15.0,34,15,6,29.88,29.75,23,3,27,0.00
2013-6-24,91.5,80.9,71.1,34.2,27.7,18.7,24,15,7,29.92,29.77,25,4,27,0.00
2013-6-25,96.8,80.6,58.9,37.7,30.4,21.1,41,19,7,30.03,29.92,24,3,27,0.00
2013-6-26,100.1,83.6,63.4,38.4,29.0,19.3,33,16,6,30.10,30.00,17,2,27,0.00
2013-6-27,105.8,82.3,65.6,39.2,34.7,19.1,35,21,5,30.16,30.01,10,0,27,0.00
2013-6-28,112.6,94.1,79.3,45.4,34.8,26.9,30,13,5,30.01,29.93,20,1,27,0.00
2013-6-29,108.5,91.5,73.8,45.5,36.5,26.4,32,17,6,30.03,29.87,22,2,22,0.00
2013-6-30,107.5,89.7,75.4,47.9,39.5,26.2,36,19,6,29.99,29.84,30,2,30,0.00